Location: Austin
(30.3000°N, 97.7500°W)
Time: 01:32:45
(UTC-05:00)

CZ-4B R/B - Pass Details

Date: 15 April 2025
Orbit: 808 x 880 km, 98.9° (Epoch: 28 April)

Event Time Altitude Azimuth Distance (km) Brightness Sun altitude
Exits shadow 22:16:02 38° 209° (SSW) 1,309 4.1 -28.1°
Maximum altitude 22:17:48 52° 259° (W) 1,082 3.9 -28.5°
Drops below altitude 10° 22:23:18 10° 335° (NNW) 2,539 6.4 -29.4°
Sets 22:25:47 0° 341° (NNW) 3,480 7.2 -29.9°
